#timestamp,LO_Frequency,Hit,StdDev 
1508040015.1,286047001.0,N
1508040016.0,286047001.0,N
1508040035.8,286046998.9,N
1508040055.6,286047000.2,N
1508040075.5,286046998.5,N
1508040095.3,286046998.7,N
1508040115.1,286046998.2,N
1508040135.9,286046998.9,N
1508040155.7,286046999.9,N
1508040175.5,286047001.8,N
1508040195.4,286046999.9,N
1508040215.2,286047000.8,N
1508040235.0,286047002.8,N
1508040235.9,286047002.8,N
1508040255.8,286047002.5,N
1508040275.6,286047000.6,N
1508040295.4,286046997.2,N
1508040315.2,286046997.0,N
1508040335.1,286047000.8,N
1508040336.0,286047000.8,N
1508040355.8,286047002.4,N
1508040375.6,286047000.4,N
1508040395.5,286047000.9,N
1508040415.3,286046997.2,N
1508040435.1,286046996.1,N
1508040455.9,286046993.7,Y
1508040475.7,286046996.2,P
1508040495.5,286046996.0,N
1508040515.4,286046996.4,N
1508040535.2,286046996.7,N
1508040555.0,286046997.8,N
1508040555.9,286046997.8,N
1508040575.8,286046996.6,N
1508040595.6,286046997.5,N
1508040615.4,286046995.4,Y
1508040635.3,286047000.9,P
1508040655.1,286046998.8,N
1508040656.0,286046998.8,N
1508040675.8,286046999.5,N
1508040695.7,286046996.9,N
1508040715.5,286046993.8,Y
1508040735.3,286046997.8,P
1508040755.2,286046998.4,P
1508040775.9,286046998.2,P
1508040795.7,286047002.8,Y
1508040815.6,286047003.7,P
1508040835.4,286047001.7,N
1508040855.2,286047001.3,N
1508040875.1,286047004.2,N
1508040876.0,286047004.2,N
1508040895.8,286047003.2,N
1508040915.6,286047004.7,N
1508040935.5,286047002.1,N
1508040955.3,286047005.7,N
1508040975.1,286047004.8,N
1508040995.8,286047005.6,N
1508041015.7,286047003.4,N
1508041035.5,286046999.8,N
1508041055.3,286047001.6,N
1508041075.2,286047002.3,N
1508041095.9,286047001.5,N
1508041115.7,286047005.6,N
1508041135.6,286047007.5,Y
1508041155.4,286047001.4,P
1508041175.2,286047001.7,N
1508041195.1,286047003.7,P
1508041196.0,286047003.7,Y
1508041215.8,286047000.0,P
1508041235.7,286046997.7,N
1508041255.5,286046998.2,N
1508041275.3,286046998.5,N
1508041295.1,286046998.4,N
1508041315.9,286046998.2,N
1508041335.7,286047002.4,N
1508041355.5,286047002.5,N
1508041375.4,286047001.9,N
1508041395.2,286047001.5,N
1508041415.0,286047000.1,N
1508041415.9,286047000.1,N
1508041435.8,286047002.8,N
1508041455.6,286047004.0,N
1508041475.4,286047009.2,Y
1508041495.3,286047011.5,P
1508041515.1,286047010.3,N
1508041535.8,286047009.6,N
1508041555.7,286047011.9,N
1508041575.5,286047008.3,N
1508041595.3,286047008.5,N
1508041615.2,286047009.5,N
1508041635.9,286047009.5,N
1508041655.7,286047008.0,N
1508041675.6,286047008.8,N
1508041695.4,286047009.9,Y
1508041715.2,286047000.9,P
1508041735.1,286047001.5,N
1508041736.0,286047001.5,N
1508041755.8,286047002.1,N
1508041775.6,286047004.4,N
1508041795.4,286047001.9,N
1508041815.3,286047003.2,N
1508041835.1,286047004.8,N
1508041855.8,286046999.7,N
1508041875.7,286047000.0,N
1508041895.5,286047000.1,N
1508041915.3,286047002.7,N
1508041935.2,286047002.0,N
1508041955.9,286047000.2,N
1508041975.7,286047001.0,N
1508041995.6,286046997.0,N
1508042015.4,286046998.6,N
1508042035.2,286046998.7,N
1508042055.1,286046996.7,N
1508042056.0,286046996.7,N
1508042075.8,286046998.0,N
1508042095.6,286047000.8,N
1508042115.5,286046996.8,N
1508042135.3,286046996.7,N
1508042155.1,286046998.1,N
1508042175.8,286047000.9,N
1508042195.7,286047000.1,N
1508042215.5,286047002.3,N
1508042235.3,286047000.1,N
1508042255.2,286047000.9,N
1508042275.9,286047001.1,N
1508042295.7,286047001.2,N
1508042315.6,286046999.6,N
1508042335.4,286046995.2,N
1508042355.2,286046997.9,N
1508042375.1,286046999.0,N
1508042376.0,286046999.0,N
1508042395.8,286046999.3,N
1508042415.6,286046997.1,N
1508042435.5,286046998.0,N
1508042455.3,286046995.2,N
1508042475.1,286046993.3,Y
1508042495.9,286046995.4,P
1508042515.7,286046993.3,P
1508042535.5,286046995.0,N
1508042555.4,286046995.7,N
1508042575.2,286046995.9,N
1508042595.0,286046994.3,Y
1508042595.9,286046994.3,P
1508042615.8,286047002.3,P
1508042635.6,286047004.2,N
1508042655.4,286047001.3,N
1508042675.3,286047001.8,N
1508042695.1,286047003.9,N
1508042696.0,286047003.9,N
1508042715.8,286047004.3,N
1508042735.6,286047001.8,N
1508042755.5,286047007.1,N
1508042775.3,286047004.9,N
1508042795.1,286047003.3,N
1508042815.9,286047000.2,N
1508042835.7,286047002.8,N
1508042855.5,286047002.1,N
1508042875.4,286046999.4,N
1508042895.2,286046998.2,N
1508042915.0,286047000.0,N
1508042915.9,286047000.0,N
1508042935.8,286047003.7,N
1508042955.6,286047003.4,N
1508042975.4,286047003.4,N
1508042995.3,286047003.9,N
1508043015.1,286047004.3,N
1508043016.0,286047004.3,N
1508043035.8,286047005.6,N
1508043055.6,286047003.2,N
1508043075.5,286047001.5,N
1508043095.3,286047004.0,N
1508043115.1,286047005.9,N
1508043135.9,286047003.9,N
1508043155.7,286047003.7,N
1508043175.5,286047002.1,N
1508043195.4,286047005.5,N
1508043215.2,286047005.8,N
1508043235.0,286047003.3,N
1508043235.9,286047003.3,N
1508043255.8,286047001.7,N
1508043275.6,286047005.4,N
1508043295.4,286047004.6,N
1508043315.3,286047005.3,N
1508043335.1,286047001.3,N
1508043336.0,286047001.3,N
1508043355.8,286047001.3,N
1508043375.7,286047006.0,Y
1508043395.5,286046999.7,P
1508043415.3,286047001.9,N
1508043435.2,286047001.2,N
1508043455.9,286047002.0,N
1508043475.7,286046998.3,N
1508043495.5,286046996.6,N
1508043515.4,286046999.0,N
1508043535.2,286046997.9,N
1508043555.0,286046996.7,N
1508043555.9,286046996.7,N
1508043575.8,286047000.5,N
1508043595.6,286046998.7,N
